Wind_Speed
13 12 12 11 13 13 12 12 13 13 14 14 13 11 12 12 11 11 11 11 11 11 11 11 11 11 11 12 12 13 13 13 13 13 12 12 13 13 14 14 15 15 16 16
14 14 13 13 14 14 13 13 13 12 13 13 12 12 12 12 12 10 11 12 11 12 11 11 11 11 11 12 13 13 13 13 13 12 12 13 13 14 14 14 15 15 16 16
15 15 15 15 14 14 15 13 12 12 13 12 12 11 12 12 11 11 12 12 12 12 12 12 12 12 12 13 13 13 13 13 13 13 13 14 14 14 14 15 15 16 16 17
18 17 17 15 14 14 14 14 13 13 13 13 12 12 12 12 11 11 12 12 13 13 13 13 13 13 13 14 14 13 14 14 14 14 14 14 14 14 15 15 15 16 17 17
19 19 18 16 15 15 15 15 14 14 14 14 13 14 14 13 13 12 12 13 14 14 14 14 13 14 14 14 14 14 14 14 14 14 14 14 14 14 15 15 15 16 17 18
19 19 20 18 16 17 17 17 16 16 15 16 15 15 15 14 14 14 14 15 15 15 15 15 15 15 15 14 14 14 15 15 14 15 15 14 14 15 15 15 16 17 17 18
20 20 20 19 18 19 19 19 18 17 17 17 17 17 17 17 16 16 16 17 17 16 16 16 16 16 16 15 15 16 16 15 15 15 15 14 14 15 15 16 16 17 18 19
20 20 21 21 21 22 21 20 20 19 19 19 19 19 18 19 19 19 18 18 18 17 16 16 17 17 16 16 16 16 16 16 15 15 14 14 14 15 16 16 17 18 18 19
22 24 24 24 23 23 23 22 22 22 21 21 20 20 19 19 20 20 20 19 19 18 17 17 18 17 17 17 17 16 16 16 15 15 15 15 15 15 16 17 17 18 18 19
25 25 26 25 24 24 24 23 23 22 22 21 21 21 21 21 21 20 20 19 19 19 18 18 18 18 18 18 17 16 16 16 16 16 16 16 16 16 17 17 17 18 18 20
27 26 27 26 26 26 25 24 24 24 23 23 22 22 22 22 21 20 20 19 19 19 18 18 18 18 18 17 17 17 17 16 16 16 16 16 16 16 17 18 18 18 18 19
28 27 26 26 27 26 26 26 26 25 24 23 23 23 22 22 21 21 20 20 19 19 19 19 18 18 18 17 17 17 17 17 16 16 15 16 16 17 17 18 18 18 18 19
30 29 27 26 27 27 27 27 27 26 25 24 23 23 22 21 21 21 21 21 20 20 20 20 19 18 17 17 17 16 16 16 16 16 16 16 17 17 17 17 17 17 18 18
29 29 28 27 27 27 27 27 26 26 26 26 25 24 23 23 22 22 22 22 21 20 20 20 19 18 18 17 17 16 16 16 16 16 17 17 17 17 16 16 16 17 18 18
27 27 28 28 27 27 27 27 27 27 26 26 25 25 25 24 24 23 23 22 21 20 20 20 19 18 18 17 17 16 16 16 16 16 17 17 17 17 16 16 17 18 19 19
27 27 27 28 27 27 27 27 26 26 26 25 24 24 24 24 23 23 22 21 20 19 19 19 19 18 17 17 17 16 16 15 16 17 17 17 17 17 17 17 18 19 19 19
26 26 26 26 26 25 25 25 25 25 25 25 24 24 24 23 22 21 21 21 20 20 20 19 18 18 18 17 16 16 16 16 16 17 17 18 18 17 18 18 18 19 19 19
27 27 26 26 26 26 25 25 25 25 24 24 23 23 23 22 22 21 20 20 21 21 20 20 19 18 18 17 17 16 16 16 16 17 18 18 18 18 18 18 18 18 19 18
26 26 26 26 26 26 26 25 25 24 23 23 23 22 22 22 22 21 20 20 20 20 20 20 19 19 18 18 18 18 18 17 17 18 18 18 18 18 18 18 17 17 17 19
27 27 26 26 26 25 24 24 25 24 23 23 23 22 22 22 22 22 21 20 20 19 20 20 19 19 19 18 19 18 18 18 18 18 18 18 18 18 17 17 17 18 18 18
25 25 26 26 26 25 24 24 24 23 23 23 22 22 22 22 22 21 21 19 19 19 19 19 19 18 18 18 19 19 18 19 19 19 18 18 18 17 17 17 17 17 17 17
23 23 24 25 25 25 24 24 24 23 23 22 22 22 22 22 22 21 21 20 20 20 19 19 19 18 18 18 19 19 19 19 19 19 19 18 17 17 17 17 17 17 17 18
23 22 22 22 23 23 23 23 23 23 22 22 21 21 21 22 22 22 21 21 20 19 19 19 19 18 18 18 18 19 19 19 19 19 18 18 18 17 17 18 18 18 17 17
21 21 21 21 21 21 21 21 21 21 21 21 21 21 21 21 21 22 22 21 21 20 20 19 19 18 18 19 18 19 19 19 19 19 19 18 18 18 18 18 18 18 17 17
20 20 20 20 20 20 20 19 20 20 21 21 21 21 21 21 21 21 21 21 20 20 19 19 18 18 18 19 19 19 19 19 18 18 17 18 18 17 17 17 17 17 17 17
20 20 20 20 20 19 19 19 19 20 20 20 21 22 22 21 20 20 21 21 21 20 19 19 18 18 19 20 20 19 19 18 18 18 17 17 17 16 16 17 17 17 17 16
20 20 20 21 20 20 20 20 19 19 19 19 20 20 20 20 19 19 20 20 19 19 19 18 18 18 19 19 19 19 18 18 18 18 17 17 16 16 16 16 16 15 15 14
Wind_Direction
264 271 276 280 284 283 283 287 287 288 290 288 291 296 299 298 295 294 295 295 300 302 303 304 305 304 302 302 304 305 305 306 309 309 308 307 309 311 315 314 312 313 314 315
268 273 276 277 282 282 282 287 291 288 284 289 293 293 294 295 294 297 296 296 299 302 304 303 304 305 304 305 306 306 306 307 310 309 307 307 307 309 312 313 313 314 315 316
270 275 276 275 281 284 290 288 288 285 283 286 294 299 297 293 294 293 295 297 298 300 299 299 302 305 303 306 306 305 304 305 307 304 304 304 305 308 309 310 313 316 318 319
271 272 273 279 280 282 286 286 285 287 286 284 290 294 297 297 299 294 297 298 298 296 296 297 299 300 302 303 301 301 302 304 305 302 303 301 301 304 307 308 309 312 315 318
268 270 272 275 280 282 285 285 284 284 289 289 289 291 294 296 295 296 298 299 297 296 295 295 295 295 298 298 296 295 297 300 301 300 301 300 299 302 306 308 310 311 313 316
266 268 271 274 278 278 279 278 280 282 284 285 287 287 289 294 290 293 295 295 296 294 293 291 292 293 295 293 292 294 296 298 298 297 298 297 299 302 305 306 308 310 311 313
265 267 268 269 272 275 276 280 281 281 283 284 285 286 284 287 290 290 291 293 294 293 292 292 292 292 294 292 292 293 294 297 296 295 296 297 299 301 304 306 308 310 311 315
265 265 264 268 270 272 276 279 280 279 281 282 282 283 284 285 284 287 288 289 292 292 292 292 293 294 292 291 291 292 293 295 295 294 296 296 296 300 303 306 308 310 313 316
262 262 265 267 269 271 275 276 276 276 276 277 277 280 283 285 283 283 286 287 290 293 294 293 291 290 287 287 288 290 294 294 293 292 294 293 294 297 301 305 307 309 313 316
261 263 264 266 267 270 272 273 273 273 272 274 275 277 281 282 282 283 283 287 288 290 292 292 291 287 284 287 286 288 290 291 291 292 293 293 294 296 299 302 304 308 312 316
261 261 261 264 265 266 268 269 270 271 271 271 273 276 278 278 279 281 282 285 287 287 287 289 289 287 286 287 286 285 286 287 289 291 292 293 293 295 299 303 305 309 312 316
259 262 264 264 264 265 268 269 268 269 269 269 271 274 275 275 277 278 279 281 282 283 284 287 288 286 284 286 285 285 286 287 287 289 293 294 293 295 298 303 308 310 313 315
260 262 263 265 266 267 267 268 269 270 270 269 271 273 275 275 276 277 277 278 281 282 284 286 285 285 283 283 284 286 286 287 288 289 293 295 296 297 298 301 306 309 311 312
260 261 262 263 265 266 266 267 268 269 270 270 273 274 276 276 277 277 277 277 280 281 283 284 284 282 281 281 281 284 285 287 287 290 293 297 299 300 301 303 306 308 309 310
259 261 263 264 265 265 266 267 267 268 270 272 275 276 276 276 276 276 277 277 278 280 281 283 282 281 280 279 280 282 284 286 288 290 293 296 299 300 301 303 305 307 308 308
259 261 263 265 265 265 266 267 267 268 269 271 273 275 276 276 275 274 274 275 275 277 279 281 280 280 280 280 280 282 284 286 287 288 291 295 297 299 300 301 303 306 309 310
259 259 261 263 263 264 266 267 267 268 269 272 273 274 275 275 274 273 273 272 273 274 276 279 280 279 278 278 280 283 284 286 288 289 291 294 295 296 297 300 303 306 310 311
258 260 263 264 265 263 264 266 266 267 268 271 273 274 275 274 273 273 273 271 272 273 275 279 280 277 276 276 278 281 283 287 290 290 292 295 295 296 298 300 302 306 309 310
259 261 263 264 265 264 264 265 266 266 268 270 273 273 273 273 272 271 272 273 272 273 274 277 278 277 275 273 275 279 282 285 289 290 292 294 294 295 295 298 300 303 306 308
259 261 262 263 264 263 263 263 263 264 266 270 271 270 270 270 270 270 269 269 271 273 274 274 276 277 274 273 274 278 281 284 287 289 291 292 293 292 293 294 296 299 303 306
258 260 261 262 262 261 262 262 263 264 266 268 268 268 268 269 268 268 266 268 272 272 272 272 273 275 273 273 274 277 279 283 285 288 290 291 291 290 291 293 295 298 300 303
260 262 264 263 261 261 262 261 262 264 265 265 265 265 265 266 268 268 268 269 271 270 270 272 271 271 272 273 273 275 279 281 283 286 289 290 289 288 289 292 294 296 298 301
261 262 263 262 260 261 263 263 263 263 263 264 264 265 265 266 266 266 266 268 268 268 268 270 269 269 271 272 274 276 277 278 280 283 286 287 287 287 288 289 290 292 296 299
260 260 260 260 260 262 263 261 261 262 262 263 263 265 265 265 264 265 266 266 267 267 268 268 268 268 270 272 274 278 279 279 280 280 281 285 288 287 286 287 289 291 295 298
260 260 259 259 259 260 260 260 260 259 260 261 263 265 264 263 264 265 265 266 268 268 266 266 268 269 269 271 274 275 277 278 279 280 282 284 285 287 287 288 289 290 293 296
258 259 260 260 261 260 260 261 261 261 262 262 262 264 264 264 266 264 262 264 265 265 267 266 266 267 268 270 272 272 271 274 276 278 281 283 284 286 288 288 288 290 293 295
259 260 260 259 260 261 262 262 261 260 262 262 264 264 263 263 265 265 262 261 261 263 265 265 264 266 267 268 270 269 270 273 275 275 277 280 281 284 287 289 288 289 291 292
Height
5809 5809 5808 5808 5808 5806 5804 5803 5802 5801 5799 5797 5795 5793 5793 5792 5792 5791 5790 5789 5788 5787 5786 5785 5784 5782 5781 5780 5780 5779 5777 5776 5775 5773 5772 5771 5770 5769 5767 5765 5763 5761 5759 5758
5805 5805 5805 5805 5804 5803 5802 5800 5799 5798 5797 5795 5793 5792 5791 5790 5789 5788 5788 5787 5786 5785 5784 5783 5782 5780 5779 5778 5777 5776 5775 5773 5772 5771 5770 5768 5767 5766 5764 5762 5760 5758 5756 5755
5801 5801 5801 5802 5802 5800 5798 5797 5797 5795 5794 5792 5791 5790 5789 5787 5786 5786 5786 5785 5784 5783 5782 5781 5780 5778 5777 5776 5774 5773 5772 5771 5770 5768 5767 5766 5764 5763 5761 5759 5758 5756 5754 5752
5797 5798 5798 5800 5798 5797 5796 5795 5793 5792 5790 5790 5788 5788 5786 5785 5784 5784 5783 5783 5782 5780 5779 5778 5777 5776 5774 5773 5771 5770 5769 5768 5767 5765 5764 5763 5762 5760 5758 5756 5755 5753 5751 5749
5793 5793 5793 5795 5794 5794 5792 5791 5790 5789 5788 5787 5786 5785 5784 5783 5782 5781 5781 5780 5779 5778 5777 5776 5774 5773 5771 5770 5769 5767 5766 5765 5764 5762 5761 5760 5758 5757 5755 5753 5752 5750 5748 5745
5788 5788 5789 5790 5790 5789 5789 5787 5787 5786 5785 5784 5784 5783 5781 5780 5779 5778 5777 5777 5776 5775 5774 5772 5771 5769 5768 5766 5765 5764 5763 5761 5760 5759 5758 5756 5755 5753 5752 5750 5748 5746 5744 5742
5782 5783 5783 5784 5784 5784 5785 5784 5783 5781 5781 5780 5780 5779 5778 5776 5775 5775 5774 5773 5772 5771 5770 5769 5768 5766 5765 5763 5762 5760 5759 5758 5756 5755 5754 5753 5751 5750 5748 5747 5745 5743 5741 5738
5777 5777 5779 5778 5778 5779 5779 5778 5777 5776 5776 5776 5775 5774 5774 5773 5772 5771 5770 5769 5768 5767 5766 5765 5764 5762 5760 5759 5758 5756 5755 5754 5753 5752 5750 5749 5748 5746 5745 5743 5741 5739 5737 5734
5771 5772 5772 5772 5772 5772 5772 5772 5772 5771 5771 5771 5770 5770 5769 5768 5767 5766 5766 5765 5764 5762 5761 5760 5759 5758 5757 5755 5754 5753 5751 5750 5749 5747 5746 5745 5744 5742 5741 5739 5737 5735 5733 5731
5763 5764 5764 5765 5766 5766 5766 5765 5765 5765 5765 5765 5764 5764 5763 5763 5762 5761 5760 5760 5759 5758 5757 5755 5754 5753 5752 5751 5750 5748 5747 5746 5745 5743 5742 5741 5739 5738 5737 5735 5733 5731 5729 5726
5756 5757 5757 5757 5758 5759 5759 5758 5758 5758 5758 5758 5758 5758 5757 5757 5756 5756 5755 5754 5754 5753 5751 5750 5749 5748 5747 5746 5745 5744 5743 5742 5740 5739 5738 5736 5735 5733 5732 5730 5728 5726 5724 5721
5749 5750 5750 5750 5750 5751 5751 5751 5751 5751 5751 5751 5751 5751 5751 5751 5750 5750 5749 5749 5748 5747 5746 5745 5744 5743 5742 5741 5740 5739 5738 5737 5736 5735 5733 5732 5731 5729 5727 5725 5723 5721 5719 5717
5741 5742 5742 5742 5742 5743 5743 5743 5743 5744 5744 5744 5744 5744 5744 5744 5743 5743 5743 5742 5741 5741 5740 5739 5738 5738 5737 5736 5735 5734 5733 5732 5731 5730 5729 5727 5726 5724 5723 5721 5719 5717 5715 5713
5733 5734 5734 5735 5735 5735 5736 5736 5736 5736 5737 5737 5737 5737 5737 5737 5737 5737 5736 5736 5735 5734 5734 5733 5733 5732 5732 5731 5730 5730 5729 5728 5726 5725 5724 5723 5721 5719 5718 5716 5715 5713 5711 5709
5725 5726 5726 5727 5728 5728 5728 5729 5729 5729 5730 5730 5730 5730 5729 5729 5729 5729 5729 5729 5729 5728 5728 5727 5727 5727 5726 5726 5725 5725 5724 5723 5722 5721 5719 5718 5717 5715 5713 5712 5710 5708 5706 5704
5718 5718 5719 5719 5720 5720 5721 5721 5722 5722 5723 5723 5723 5723 5722 5722 5722 5722 5722 5722 5722 5722 5722 5722 5721 5721 5721 5721 5721 5720 5719 5719 5717 5716 5715 5714 5712 5711 5709 5707 5705 5703 5701 5699
5710 5711 5711 5712 5712 5713 5713 5714 5714 5715 5715 5716 5716 5716 5716 5715 5715 5715 5716 5716 5716 5716 5716 5716 5716 5716 5716 5716 5716 5715 5715 5714 5713 5711 5710 5709 5707 5706 5704 5703 5701 5699 5697 5694
5702 5703 5704 5704 5705 5706 5706 5707 5707 5708 5708 5709 5709 5709 5709 5709 5709 5709 5709 5709 5710 5710 5710 5711 5710 5710 5710 5711 5710 5710 5709 5709 5708 5707 5705 5704 5702 5701 5699 5698 5696 5694 5692 5690
5694 5696 5697 5697 5698 5698 5699 5700 5700 5701 5701 5702 5702 5702 5702 5702 5702 5702 5702 5702 5703 5704 5705 5704 5704 5704 5705 5705 5705 5705 5704 5704 5703 5702 5700 5699 5697 5696 5694 5693 5692 5690 5688 5686
5687 5688 5689 5690 5690 5691 5691 5692 5693 5694 5695 5695 5695 5695 5695 5695 5695 5695 5695 5696 5697 5697 5698 5698 5698 5698 5699 5699 5699 5699 5699 5698 5698 5696 5695 5694 5692 5691 5690 5688 5687 5685 5683 5681
5679 5681 5682 5682 5683 5683 5684 5684 5686 5687 5687 5688 5688 5689 5689 5689 5689 5689 5689 5690 5691 5691 5691 5692 5692 5693 5693 5693 5694 5693 5693 5693 5692 5691 5690 5688 5687 5686 5685 5684 5682 5681 5679 5677
5672 5673 5674 5675 5675 5676 5677 5678 5678 5679 5680 5681 5681 5682 5682 5682 5683 5683 5683 5684 5684 5685 5685 5686 5686 5687 5688 5688 5688 5688 5687 5687 5686 5685 5684 5683 5682 5681 5680 5678 5677 5675 5674 5672
5665 5666 5667 5667 5668 5669 5670 5670 5671 5672 5673 5674 5675 5675 5676 5676 5676 5677 5677 5678 5679 5679 5680 5680 5681 5682 5682 5682 5682 5682 5681 5681 5681 5680 5679 5678 5677 5675 5674 5673 5672 5670 5669 5667
5658 5659 5660 5661 5662 5662 5663 5664 5665 5665 5666 5667 5668 5669 5669 5670 5670 5671 5671 5672 5673 5673 5674 5675 5675 5675 5676 5676 5676 5676 5676 5675 5675 5674 5673 5672 5671 5670 5669 5668 5666 5665 5664 5662
5652 5653 5654 5655 5656 5656 5657 5658 5658 5659 5660 5660 5661 5662 5662 5663 5664 5665 5665 5666 5667 5667 5668 5669 5669 5670 5670 5670 5670 5670 5670 5670 5669 5669 5668 5667 5666 5665 5664 5663 5661 5660 5659 5657
5646 5647 5648 5649 5649 5650 5651 5651 5652 5653 5653 5654 5655 5655 5656 5657 5657 5658 5659 5660 5660 5661 5662 5662 5663 5664 5664 5664 5664 5664 5664 5664 5664 5664 5663 5662 5661 5660 5659 5658 5656 5655 5654 5652
5641 5641 5642 5643 5644 5644 5645 5645 5646 5647 5647 5648 5648 5649 5649 5650 5651 5651 5652 5653 5654 5655 5655 5656 5657 5658 5658 5658 5658 5658 5658 5658 5658 5658 5657 5657 5656 5655 5654 5653 5651 5650 5649 5648